Regional Weather Roundup
Issued by NWS

Home | Current Version | Previous Version | Text Only | Print | Product List | Glossary Off
Versions: 1 2 3 4 5 6 7 8 9 10 11 12 13 14 15 16 17 18 19 20 21 22 23 24 25 26 27 28 29 30 31 32 33 34 35 36 37 38 39 40 41 42 43 44 45 46 47 48 49 50

000
ASUS43 KMPX 220301
RWRMN
WEATHER ROUNDUP FOR MINNESOTA
NATIONAL WEATHER SERVICE TWIN CITIES/CHANHASSEN MN
900 PM CST FRI NOV 21 2014


NOTE: "FAIR" INDICATES FEW OR NO CLOUDS BELOW 12,000 FEET WITH NO
SIGNIFICANT WEATHER AND/OR OBSTRUCTIONS TO VISIBILITY. N/A MEANS
CURRENT SKY AND/OR WEATHER CONDITIONS ARE NOT AVAILABLE.

MNZ060>063-068>070-220400-
   Twin Cities Metro

CITY           SKY/WX    TMP DP  RH WIND       PRES   REMARKS
TWIN CITIES    CLOUDY    30  22  72 S9        29.92F WCI  22
ST PAUL        CLOUDY    29  23  78 S8        29.93F WCI  21
CRYSTAL        CLOUDY    32  23  69 S13       29.89  WCI  22
BLAINE         CLOUDY    30  25  80 S12       29.89F WCI  21
LAKEVILLE      CLOUDY    28  23  80 S14G21    29.92F WCI  17
EDEN PRAIRIE   MOCLDY    31  24  75 S17       29.90F WCI  19
SOUTH ST PAUL  CLOUDY    31  24  74 S8        29.93F WCI  24
LAKE ELMO      FAIR      30  25  80 S16       29.92F WCI  19
$$
MNZ001>005-007-008-013>017-022>024-027-028-220400-
   Northwest Minnesota

CITY           SKY/WX    TMP DP  RH WIND       PRES   REMARKS
BEMIDJI        MOCLDY    28  24  82 SW10      29.66S WCI  19
HALLOCK        CLEAR     27  23  86 S9        29.55S WCI  17
ROSEAU         CLEAR     30  25  80 SW21      29.54S WCI  17
WARROAD        CLEAR     28  25  86 SW16G23   29.54F WCI  17
THIEF RVR FALL CLEAR     28  25  86 S22       29.60F WCI  15
CROOKSTON      CLEAR     28  25  86 SW18      29.64F WCI  16
FOSSTON        PTCLDY    27  23  86 S18       29.65F WCI  13
DETROIT LAKES  PTCLDY    32  28  86 SW12G17   29.71S WCI  23
MOORHEAD       CLEAR     30  28  93 S13       29.72S WCI  20
PARK RAPIDS    PTCLDY    27  23  85 S7        29.71F WCI  19
MAHNOMEN       FAIR      28  24  86 S20       29.68S WCI  15
$$
MNZ006-009>011-018-025>026-220400-
   North Central Minnesota

CITY           SKY/WX    TMP DP  RH WIND       PRES   REMARKS
BAUDETTE       CLEAR     28  21  75 S15       29.56F WCI  16
FLAG ISLAND    CLEAR     27  23  86 S15G22    29.52S WCI  15
INTL FALLS     PTCLDY    27  20  75 S9        29.60F WCI  18
WASKISH        FAIR      28  23  80 S6        29.62F WCI  22
BIG FORK       PTCLDY    28  23  80 S14G21    29.66S WCI  17
LONGVILLE      MOCLDY    28  25  86 S10G17    29.70F WCI  19
GRAND RAPIDS   MOCLDY    28  21  74 S18G31    29.69S WCI  16
CRANE LAKE     PTCLDY    27  21  80 S13G20    29.64F WCI  16
ORR            PTCLDY    27  19  74 S10G18    29.61F WCI  17
COOK             N/A     28  21  74 S13G18    29.67F WCI  18
WALKER         FAIR      28  24  82 SW14G22   29.68F WCI  17
$$
MNZ012-019>021-037-220400-
   Northeast Minnesota

CITY           SKY/WX    TMP DP  RH WIND       PRES   REMARKS
DULUTH         PTCLDY    26  18  71 SW18G26   29.75F WCI  13
ELY            MOCLDY    27  19  74 SW10G24   29.68S WCI  17
HIBBING        MOCLDY    29  20  69 S9G21     29.70F WCI  20
EVELETH        MOCLDY    28  21  74 SW12G18   29.72F WCI  18
DULUTH HARBOR  PTCLDY    28  21  74 SW15      29.81F WCI  17
TWO HARBORS    PTCLDY    28  21  74 SW17G24   29.75F WCI  16
SILVER BAY     MOCLDY    28  19  69 S13G24    29.74F WCI  18
GRAND MARAIS     N/A     34  28  79 SW33G39   29.75F WCI  20
G MARAIS ARPRT CLOUDY    25  16  68 S17G30    29.69F WCI  11
$$
MNZ029>031-032-039>041-046>048-054>057-064-220400-
   West Central Minnesota

CITY           SKY/WX    TMP DP  RH WIND       PRES   REMARKS
FERGUS FALLS   PTCLDY    28  25  86 S13       29.77F WCI  18
WHEATON        PTCLDY    34  28  80 S6        29.77F WCI  29
MORRIS         PTCLDY    28  25  86 S12       29.77F WCI  18
ALEXANDRIA     MOCLDY    30  25  81 S17       29.77F WCI  18
ELBOW LAKE       N/A     30  27  88 S10       29.76F WCI  21
WADENA         FAIR      28  25  86 S12       29.73F WCI  18
GLENWOOD       PTCLDY    28  27  93 S14       29.79F WCI  17
APPLETON       PTCLDY    32  27  80 S6        29.80F WCI  26
BENSON         PTCLDY    28  25  86 S9        29.81F WCI  20
ORTONVILLE     MOCLDY    36  28  75 S8        29.78F
MADISON        PTCLDY    37  30  75 W7        29.81R
WILLMAR        FAIR      28  25  86 S3        29.84F
$$
MNZ033>034-036-042>043-049>051-058-059-220400-
   Central Minnesota

CITY           SKY/WX    TMP DP  RH WIND       PRES   REMARKS
ST CLOUD       MOCLDY    30  22  72 S17       29.84F WCI  18
SAUK CENTRE    FAIR      28  24  86 S12       29.81F WCI  18
PAYNESVILLE    MOCLDY    25  23  89 SE10      29.83F WCI  15
AITKIN         MOCLDY    30  23  74 S12       29.75F WCI  21
PINE RIVER     PTCLDY    28  25  86 S8        29.77F WCI  20
BRAINERD       MOCLDY    27  22  81 S14       29.78F WCI  16
STAPLES        MOCLDY    28  25  86 S14G21    29.74F WCI  17
LONG PRAIRIE   FAIR      28  25  86 S13       29.78F WCI  18
LITTLE FALLS   MOCLDY    30  23  74 S9        29.81F WCI  22
LITCHFIELD     PTCLDY    28  27  93 S6        29.85F WCI  22
BUFFALO        MOCLDY    29  22  74 S12G21    29.88F WCI  20
MAPLE LAKE     PTCLDY    29  25  82 S9        29.87F WCI  21
$$
MNZ037-044-045-052-053-220400-
   East Central Minnesota

CITY           SKY/WX    TMP DP  RH WIND       PRES   REMARKS
PRINCETON      MOCLDY    30  23  74 S12G20    29.86F WCI  21
MORA             N/A    N/A N/A N/A MISG        N/A
CAMBRIDGE      MOCLDY    30  19  64 S9        29.85F WCI  22
RUSH CITY      MOCLDY    27  21  77 S10G16    29.86F WCI  17
MOOSE LAKE     PTCLDY    27  19  74 S13       29.79F WCI  16
HINCKLEY       FAIR      28  21  74 S9G17     29.85F WCI  20
CLOQUET        PTCLDY    25  19  80 S13       29.78S WCI  13
MCGREGOR       MOCLDY    30  23  74 S15G22    29.78F WCI  19
$$
MNZ071>073-080-081-089-090-097-098-220400-
   Southwest Minnesota

CITY           SKY/WX    TMP DP  RH WIND       PRES   REMARKS
MONTEVIDEO     FAIR      30  27  86 SW6       29.82F WCI  24
GRANITE FALLS  PTCLDY    31  27  83 S13       29.84F WCI  22
CANBY          CLOUDY    36  30  79 SW14G20   29.80F
MARSHALL       MOCLDY    36  27  69 SW17      29.82F
REDWOOD FALLS  MOCLDY    33  27  78 S8        29.86F WCI  26
OLIVIA         PTCLDY    32  27  80 S10       29.85S WCI  24
PIPESTONE      MOCLDY    30  27  86 SW16      29.85F WCI  19
WINDOM         CLOUDY    34  28  80 S17G25    29.88S WCI  23
WORTHINGTON    CLOUDY    30  27  86 SW21G28   29.88F WCI  17
JACKSON        CLOUDY    32  28  86 S20       29.90F WCI  20
TRACY          CLOUDY    35  29  78 SW20G26   29.84F WCI  24
SLAYTON        CLOUDY    31  27  84 SW29      29.84F WCI  17
$$
MNZ065>067-074>077-082>085-091>093-220400-
   South Central Minnesota

CITY           SKY/WX    TMP DP  RH WIND       PRES   REMARKS
MANKATO        PTCLDY    30  21  69 S15G22    29.92F WCI  19
NEW ULM        PTCLDY    28  27  93 S14       29.88F WCI  17
ST JAMES       PTCLDY    34  28  80 S16       29.93R WCI  23
FAIRMONT       MOCLDY    32  27  80 S18       29.92S WCI  20
GLENCOE        CLEAR     29  25  84 S12G18    29.88F WCI  19
FARIBAULT      MOCLDY    28  25  86 S14G20    29.93F WCI  17
OWATONNA       MOCLDY    28  25  86 S17       29.94F WCI  16
WASECA         MOCLDY    32  27  80 S22G28    29.95F WCI  19
ALBERT LEA     CLOUDY    32  27  80 S16G22    29.95F WCI  21
$$
MNZ078>079-086>088-094>096-220400-
   Southeast Minnesota

CITY           SKY/WX    TMP DP  RH WIND       PRES   REMARKS
ROCHESTER      CLOUDY    29  23  78 S26G37    29.96F WCI  14
RED WING       CLOUDY    32  25  74 S10       29.96F WCI  24
STANTON        CLOUDY    32  25  76 S17G23    29.93F WCI  20
DODGE CENTER   CLOUDY    30  27  86 S24       29.95S WCI  16
WINONA         CLOUDY    34  23  64 S5        30.02F WCI  30
AUSTIN         CLOUDY    30  25  80 S21G28    29.97F WCI  17
PRESTON        CLOUDY    28  21  74 S20G28    30.00F WCI  15
$$
ABBREVIATIONS USED IN REMARKS
   TC - TEMPERATURES IN CELSIUS
  WCI - WIND CHILL INDEX
   HX - HEAT INDEX
  VSB - VISIBILITY
$$


USA.gov is the U.S. government's official web portal to all federal, state and local government web resources and services.